Flag for Portugal Weather past 2 weeks in Lisbon, Portugal

Now
50 °F

Passing clouds.


Feels Like: 47 °F
Forecast: 51 / 59 °F
Wind: 8 mph from North

Location: Lisbon Portela Airport

Current Time: Dec 18, 2014 at 8:01:35 AM

Latest Report: Dec 18, 2014 at 7:00 AM


Visibility: N/A

Pressure: 30.39 "Hg

Humidity: 88%

Dew point: 46 °F

Location of LisbonLocation

Historic Weather in Lisbon — Graph

°F

Lisbon temperature yesterday

Maximum temperature yesterday: 59 °F (at 12:00 PM)
Minimum temperature yesterday: 52 °F (at 7:30 PM)
Average temperature yesterday: 56 °F

Past Weeks' High & Low Weather Summary

 TemperatureHumidityPressure
High61 °F (Dec 16, 12:00 PM)100% (Dec 11, 7:30 AM)30.51 "Hg (Dec 11, 7:30 AM)
Low41 °F (Dec 6, 8:00 AM)51% (Dec 6, 1:00 PM)29.65 "Hg (Dec 13, 3:30 PM)
Average53 °F82%30.21 "Hg
* Reported Dec 3 7:00 AM — Dec 18 7:00 AM, Lisbon, Weather by CustomWeather, © 2014

Note: Actual official high and low records may vary slightly from our data, if they occured in-between our weather recording intervals... More about our weather records

Advertising

Lisbon weather history for previous 24 hours

 ConditionsComfort  
Time TempWeatherWind HumidityBarometerVisibility
7:00 AM
Dec 18
50 °FPassing clouds.8 mph88%30.39 "HgN/A
6:30 AM50 °FPassing clouds.9 mph88%30.39 "HgN/A
6:00 AM52 °FPassing clouds.10 mph82%30.39 "HgN/A
5:30 AM52 °FPassing clouds.8 mph82%30.36 "HgN/A
5:00 AM50 °FPassing clouds.12 mph88%30.36 "HgN/A
4:30 AM50 °FPassing clouds.7 mph88%30.36 "HgN/A
4:00 AM52 °FPassing clouds.10 mph88%30.36 "HgN/A
3:00 AM50 °FPassing clouds.6 mph88%30.39 "HgN/A
2:30 AM52 °FPassing clouds.7 mph88%30.39 "HgN/A
2:00 AM52 °FPassing clouds.6 mph88%30.39 "HgN/A
1:30 AM52 °FPassing clouds.12 mph88%30.39 "HgN/A
1:00 AM52 °FPassing clouds.14 mph88%30.39 "HgN/A
12:30 AM52 °FPassing clouds.7 mph88%30.39 "HgN/A
12:00 AM52 °FPassing clouds.10 mph88%30.39 "HgN/A
11:30 PM
Dec 17
52 °FPassing clouds.12 mph88%30.39 "HgN/A
11:00 PM52 °FPassing clouds.10 mph88%30.39 "HgN/A
10:30 PM52 °FPassing clouds.10 mph88%30.39 "HgN/A
10:00 PM52 °FPassing clouds.13 mph88%30.39 "HgN/A
9:30 PM52 °FPassing clouds.8 mph88%30.39 "HgN/A
9:00 PM52 °FPassing clouds.7 mph88%30.39 "HgN/A
8:30 PM52 °FPassing clouds.6 mph82%30.39 "HgN/A
8:00 PM52 °FPassing clouds.8 mph82%30.39 "HgN/A
7:30 PM52 °FPassing clouds.12 mph82%30.39 "HgN/A
7:00 PM54 °FPassing clouds.12 mph82%30.39 "HgN/A
6:30 PM54 °FPassing clouds.9 mph82%30.36 "HgN/A
6:00 PM54 °FPassing clouds.13 mph82%30.36 "HgN/A
5:30 PM54 °FPassing clouds.12 mph82%30.36 "HgN/A
5:00 PM55 °FPassing clouds.14 mph77%30.36 "HgN/A
4:30 PM55 °FPassing clouds.14 mph77%30.33 "HgN/A
4:00 PM57 °FPassing clouds.15 mph72%30.36 "HgN/A
3:30 PM57 °FPassing clouds.14 mph72%30.36 "HgN/A
3:00 PM59 °FPassing clouds.15 mph72%30.36 "HgN/A
2:30 PM59 °FPassing clouds.15 mph72%30.33 "HgN/A
2:00 PM59 °FPassing clouds.13 mph72%30.36 "HgN/A
1:30 PM57 °FPassing clouds.14 mph77%30.36 "HgN/A
1:00 PM57 °FPassing clouds.16 mph77%30.36 "HgN/A
12:30 PM57 °FPassing clouds.16 mph77%30.36 "HgN/A
12:00 PM59 °FScattered clouds.14 mph77%30.36 "HgN/A
11:30 AM57 °FPartly sunny.13 mph82%30.39 "HgN/A
11:00 AM57 °FPartly sunny.9 mph82%30.39 "HgN/A
10:30 AM57 °FPartly sunny.12 mph88%30.39 "HgN/A
10:00 AM57 °FPartly sunny.15 mph82%30.39 "HgN/A
9:30 AM57 °FPartly sunny.13 mph88%30.36 "HgN/A
9:00 AM57 °FPartly sunny.13 mph88%30.36 "HgN/A
8:30 AM57 °FPartly sunny.15 mph82%30.33 "HgN/A
8:00 AM57 °FPartly sunny.15 mph82%30.33 "HgN/A
Weather by CustomWeather, © 2014

See weather overviewHow to use our weather pages